Flag for Botswana Weather past 2 weeks in Gaborone, Botswana

Now
63 °F

Sunny.


Feels Like: 63 °F
Forecast: 52 / 74 °F
Wind: 3 mph from South

Location: Seretse Khama International Airport

Current Time: Aug 21, 2014 at 8:53:27 AM

Latest Report: Aug 21, 2014 at 8:00 AM


Visibility: 10 mi

Pressure: 30.07 "Hg

Humidity: 27%

Dew point: 28 °F

Location of GaboroneLocation

Historic Weather in Gaborone — Graph

°F

Gaborone temperature yesterday

Maximum temperature yesterday: 88 °F (at 3:00 PM)
Minimum temperature yesterday: 55 °F (at 7:00 AM)
Average temperature yesterday: 72 °F

Past Weeks' High & Low Weather Summary

 TemperatureHumidityPressure
High91 °F (Aug 17, 5:00 PM)88% (Aug 10, 2:00 AM)30.45 "Hg (Aug 10, 2:00 AM)
Low48 °F (Aug 13, 5:00 AM)10% (Aug 6, 4:00 PM)30.01 "Hg (Aug 21, 3:00 AM)
Average66 °F43%30.21 "Hg
* Reported Aug 6 7:00 AM — Aug 21 7:00 AM, Gaborone, Weather by CustomWeather, © 2014

Note: Actual official high and low records may vary slightly from our data, if they occured in-between our weather recording intervals... More about our weather records

Advertising

Gaborone weather history for previous 24 hours

 ConditionsComfort  
Time TempWeatherWind HumidityBarometerVisibility
7:00 AM
Aug 21
54 °FSunny.5 mph41%30.04 "Hg10 mi
6:00 AM55 °FSunny.3 mph36%30.04 "Hg10 mi
5:00 AM57 °FPassing clouds.7 mph33%30.01 "HgN/A
4:00 AM59 °FClear.6 mph31%30.01 "Hg10 mi
3:00 AM61 °FPassing clouds.3 mph29%30.01 "HgN/A
2:00 AM63 °FClear.5 mph27%30.04 "Hg10 mi
1:00 AM64 °FClear.5 mph28%30.04 "Hg10 mi
12:00 AM64 °FPassing clouds.3 mph28%30.04 "HgN/A
11:00 PM
Aug 20
70 °FPassing clouds.3 mph23%30.07 "HgN/A
10:00 PM70 °FClear.6 mph23%30.07 "Hg10 mi
9:00 PM72 °FClear.1 mph20%30.07 "Hg10 mi
8:00 PM72 °FClear.3 mph20%30.07 "Hg10 mi
7:00 PM75 °FClear.2 mph18%30.04 "Hg10 mi
6:00 PM82 °FClear.5 mph14%30.04 "Hg10 mi
5:00 PM86 °FPassing clouds.3 mph12%30.04 "HgN/A
4:00 PM88 °FPassing clouds.6 mph12%30.04 "HgN/A
3:00 PM88 °FSunny.6 mph13%30.04 "Hg10 mi
2:00 PM86 °FPassing clouds.10 mph12%30.07 "HgN/A
1:00 PM86 °FPassing clouds.12 mph12%30.09 "HgN/A
12:00 PM84 °FSunny.7 mph13%30.15 "Hg10 mi
11:00 AM81 °FPassing clouds.7 mph16%30.18 "HgN/A
10:00 AM75 °FPassing clouds.6 mph21%30.18 "HgN/A
9:00 AM70 °FPassing clouds.6 mph25%30.18 "HgN/A
8:00 AM63 °FSunny.2 mph34%30.18 "Hg10 mi
Weather by CustomWeather, © 2014

See weather overviewHow to use our weather pages